Weather History for Marianna, FL

Change the Weather History Date:

Sunday, March 24, 2013

  Actual Average Record
Temperature  
Mean Temperature 67 °F 62 °F  
Max Temperature 85 °F 74 °F 86 °F (2011)
Min Temperature 48 °F 49 °F 37 °F (2002)
Degree Days  
Heating Degree Days 0    
Month to date heating degree days 228  
Since 1 July heating degree days 1231  
Cooling Degree Days 2    
Month to date cooling degree days 8  
Year to date cooling degree days 67  
Growing Degree Days 20 (Base 50)    
Moisture  
Dew Point 61 °F    
Average Humidity 67    
Maximum Humidity 100    
Minimum Humidity 34    
Precipitation  
Precipitation 0.24 in 0.18 in 0.24 in (2013)
Month to date precipitation 2.84 4.03  
Year to date precipitation 16.71 14.01  
Sea Level Pressure  
Sea Level Pressure 29.60 in    
Wind  
Wind Speed 14 mph (WSW)    
Max Wind Speed 30 mph    
Max Gust Speed 36 mph    
Visibility 8 miles    
Events Rain , Thunderstorm    
T = Trace of Precipitation, MM = Missing Value Source: NWS Daily Summary

Daily Weather History Graph

Daily Weather History Graph

Search for Another Location

Airport:

Trip Planner

Search our weather history database for the weather conditions in past years. The results will help you decide how hot, cold, wet, or windy it might be!

Date:

Astronomy

Mar. 24, 2013 Rise Set
Actual Time 6:39 AM CDT 6:54 PM CDT
Civil Twilight 6:15 AM CDT 7:19 PM CDT
Nautical Twilight 5:46 AM CDT 7:47 PM CDT
Astronomical Twilight 5:18 AM CDT 8:15 PM CDT
Moon 4:30 PM CDT (3/24) 4:39 AM CDT (3/24)
Length of Visible Light 13h 03m
Length of Day
12h 15m
Waxing Gibbous, 92% of the Moon is Illuminated
Mar 24
Waxing Gibbous
Mar 27
Full
Apr 2
Last Quarter
Apr 10
New
Apr 18
First Quarter

Hourly Weather History & Observations

Time (CDT) Temp. Heat Index Dew Point Humidity Pressure Visibility Wind Dir Wind Speed Gust Speed Precip Events Conditions
12:53 AM 62.1 °F - 62.1 °F 100% 29.65 in 2.5 mi Variable 3.5 mph - N/A   Overcast
1:10 AM 62.6 °F - 62.6 °F 100% 29.63 in 1.8 mi SSE 6.9 mph - N/A   Overcast
1:53 AM 64.9 °F - 64.0 °F 97% 29.61 in 2.0 mi South 5.8 mph - 0.00 in Rain Light Rain
2:03 AM 64.4 °F - 64.4 °F 100% 29.61 in 4.0 mi SSE 5.8 mph - 0.01 in Rain Light Rain
2:18 AM 66.2 °F - 64.4 °F 94% 29.60 in 2.5 mi South 8.1 mph - 0.01 in Rain Light Rain
2:26 AM 66.2 °F - 66.2 °F 100% 29.60 in 6.0 mi South 10.4 mph - 0.01 in Rain Light Rain
2:53 AM 68.0 °F - 66.9 °F 96% 29.58 in 9.0 mi South 12.7 mph - 0.01 in Rain Light Rain
3:24 AM 68.0 °F - 68.0 °F 100% 29.57 in 6.0 mi SSW 8.1 mph - 0.01 in Rain , Thunderstorm Light Rain
3:53 AM 69.1 °F - 68.0 °F 96% 29.54 in 7.0 mi Calm Calm - 0.04 in Rain , Thunderstorm Light Rain
4:47 AM 71.6 °F - 71.6 °F 100% 29.51 in 1.8 mi SW 15.0 mph 23.0 mph 0.15 in Rain , Thunderstorm Heavy Thunderstorms and Rain
4:53 AM 72.0 °F - 71.1 °F 97% 29.51 in 2.5 mi WSW 15.0 mph 23.0 mph 0.16 in Rain , Thunderstorm Light Rain
5:01 AM 71.6 °F - 71.6 °F 100% 29.52 in 6.0 mi SW 18.4 mph 24.2 mph 0.02 in Rain , Thunderstorm Light Rain
5:31 AM 71.6 °F - 69.8 °F 94% 29.52 in 10.0 mi WSW 9.2 mph - 0.03 in   Overcast
5:53 AM 72.0 °F - 70.0 °F 93% 29.52 in 8.0 mi West 16.1 mph 23.0 mph 0.03 in   Overcast
6:37 AM 71.6 °F - 69.8 °F 94% 29.52 in 7.0 mi WSW 12.7 mph 19.6 mph N/A   Overcast
6:53 AM 72.0 °F - 68.0 °F 87% 29.53 in 7.0 mi WSW 12.7 mph 21.9 mph N/A   Mostly Cloudy
7:07 AM 71.6 °F - 68.0 °F 88% 29.54 in 6.0 mi West 16.1 mph 25.3 mph N/A   Mostly Cloudy
7:53 AM 71.1 °F - 68.0 °F 90% 29.56 in 6.0 mi WSW 9.2 mph - N/A   Overcast
8:53 AM 73.0 °F - 68.0 °F 84% 29.58 in 7.0 mi WSW 11.5 mph - N/A   Mostly Cloudy
9:40 AM 75.2 °F - 68.0 °F 78% 29.59 in 10.0 mi West 12.7 mph - N/A   Scattered Clouds
9:53 AM 75.9 °F - 66.9 °F 74% 29.59 in 10.0 mi West 11.5 mph - N/A   Partly Cloudy
10:53 AM 80.1 °F 80.9 °F 60.1 °F 50% 29.60 in 10.0 mi West 10.4 mph 18.4 mph N/A   Clear
11:53 AM 81.0 °F 81.0 °F 57.0 °F 44% 29.62 in 10.0 mi WNW 12.7 mph - N/A   Clear
12:53 PM 82.0 °F 81.3 °F 54.0 °F 38% 29.61 in 10.0 mi West 13.8 mph 25.3 mph N/A   Clear
1:53 PM 82.9 °F 81.8 °F 53.1 °F 36% 29.58 in 10.0 mi West 16.1 mph 24.2 mph N/A   Clear
2:53 PM 84.0 °F 82.6 °F 54.0 °F 35% 29.56 in 10.0 mi West 17.3 mph - N/A   Clear
3:53 PM 84.0 °F 82.6 °F 54.0 °F 35% 29.55 in 10.0 mi West 16.1 mph 27.6 mph N/A   Partly Cloudy
4:53 PM 82.0 °F 81.7 °F 57.0 °F 42% 29.55 in 10.0 mi WSW 17.3 mph 28.8 mph N/A   Clear
5:53 PM 78.1 °F - 57.9 °F 50% 29.55 in 10.0 mi SW 16.1 mph 21.9 mph N/A   Clear
6:53 PM 75.0 °F - 57.0 °F 53% 29.58 in 10.0 mi SW 10.4 mph 23.0 mph N/A   Scattered Clouds
7:53 PM 72.0 °F - 59.0 °F 64% 29.62 in 10.0 mi West 15.0 mph 21.9 mph N/A   Clear
8:14 PM 69.8 °F - 55.4 °F 60% 29.66 in 10.0 mi NW 18.4 mph 31.1 mph N/A   Clear
8:53 PM 64.9 °F - 50.0 °F 58% 29.71 in 10.0 mi NW 21.9 mph 35.7 mph N/A   Clear
9:53 PM 60.1 °F - 37.9 °F 44% 29.76 in 10.0 mi WNW 16.1 mph 33.4 mph N/A   Clear
10:53 PM 57.0 °F - 42.1 °F 57% 29.79 in 10.0 mi NW 16.1 mph 24.2 mph N/A   Clear
11:53 PM 55.0 °F - 36.0 °F 49% 29.81 in 10.0 mi NW 16.1 mph 25.3 mph N/A   Clear